When you browse on this site, cookies collect data to enhance your experience and personalize the content and advertising you see.
Visit our Privacy Policy to learn more. By continuing to use the site, you agree to this use of cookies and data.
  • en France
  • Liste des pays
  • À 7 jours
  • Température de l'eau
  • Carte satellitaire
  • Carte météo
  • Widgets météo
  • user-avatar
    Se connecter

    Météo par heure à Graz

    Ce jour, 26 Avril, Vendredi

    Heure Température Précipitation Vent Pression Humidité
    00:00 +14°C° 0 mm 1 m/s 723 mmHg 83%
    01:00 +13°C° 0 mm 1 m/s 722 mmHg 84%
    02:00 +13°C° 0 mm 1 m/s 722 mmHg 84%
    03:00 +13°C° 0 mm 1 m/s 722 mmHg 84%
    04:00 +13°C° 0 mm 2 m/s 722 mmHg 85%
    05:00 +14°C° 0 mm 1 m/s 722 mmHg 81%
    06:00 +15°C° 0 mm 1 m/s 722 mmHg 77%
    07:00 +16°C° 0 mm 1 m/s 721 mmHg 74%
    08:00 +18°C° 0 mm 2 m/s 721 mmHg 66%
    09:00 +19°C° 0 mm 2 m/s 721 mmHg 58%
    10:00 +21°C° 0 mm 3 m/s 721 mmHg 50%
    11:00 +22°C° 0 mm 4 m/s 721 mmHg 47%
    12:00 +23°C° 0 mm 5 m/s 721 mmHg 43%
    13:00 +25°C° 0 mm 5 m/s 720 mmHg 40%
    14:00 +23°C° 0 mm 5 m/s 720 mmHg 43%
    15:00 +22°C° 0 mm 5 m/s 720 mmHg 47%
    16:00 +22°C° 0 mm 5 m/s 720 mmHg 50%
    17:00 +20°C° 0 mm 4 m/s 720 mmHg 59%
    18:00 +17°C° 0 mm 3 m/s 721 mmHg 68%
    19:00 +15°C° 0 mm 1 m/s 721 mmHg 78%
    20:00 +15°C° 0 mm 1 m/s 721 mmHg 80%
    21:00 +14°C° 0 mm 2 m/s 722 mmHg 83%
    22:00 +13°C° 0 mm 2 m/s 722 mmHg 86%
    23:00 +13°C° 0 mm 2 m/s 722 mmHg 84%

    Demain, 27 Avril, Samedi

    Heure Température Précipitation Vent Pression Humidité
    00:00 +12°C° 0 mm 2 m/s 723 mmHg 82%
    01:00 +12°C° 0 mm 2 m/s 723 mmHg 81%
    02:00 +10°C° 0 mm 2 m/s 723 mmHg 79%
    03:00 +9°C° 0 mm 2 m/s 723 mmHg 77%
    04:00 +9°C° 0 mm 2 m/s 723 mmHg 75%
    05:00 +9°C° 0 mm 2 m/s 723 mmHg 72%
    06:00 +10°C° 0 mm 2 m/s 724 mmHg 69%
    07:00 +10°C° 0 mm 2 m/s 724 mmHg 66%
    08:00 +13°C° 0 mm 2 m/s 724 mmHg 58%
    09:00 +15°C° 0 mm 2 m/s 724 mmHg 51%
    10:00 +16°C° 0 mm 2 m/s 725 mmHg 44%
    11:00 +18°C° 0.4 mm 1 m/s 724 mmHg 47%
    12:00 +18°C° 0.4 mm 1 m/s 724 mmHg 50%
    13:00 +18°C° 0.4 mm 1 m/s 724 mmHg 53%
    14:00 +18°C° 0.2 mm 1 m/s 724 mmHg 51%
    15:00 +18°C° 0.2 mm 1 m/s 724 mmHg 49%
    16:00 +18°C° 0.2 mm 1 m/s 723 mmHg 47%
    17:00 +15°C° 0.1 mm 1 m/s 723 mmHg 55%
    18:00 +14°C° 0.1 mm 1 m/s 724 mmHg 63%
    19:00 +11°C° 0.1 mm 0 m/s 724 mmHg 71%
    20:00 +11°C° 0 mm 1 m/s 724 mmHg 73%
    21:00 +10°C° 0 mm 1 m/s 725 mmHg 76%
    22:00 +9°C° 0 mm 1 m/s 725 mmHg 78%
    23:00 +9°C° 0 mm 1 m/s 725 mmHg 79%

    Après-demain, 28 Avril, Dimanche

    Heure Température Précipitation Vent Pression Humidité
    00:00 +9°C° 0 mm 1 m/s 725 mmHg 81%
    01:00 +8°C° 0 mm 1 m/s 725 mmHg 83%
    02:00 +8°C° 0 mm 1 m/s 725 mmHg 84%
    03:00 +8°C° 0 mm 1 m/s 725 mmHg 85%
    04:00 +7°C° 0 mm 1 m/s 725 mmHg 86%
    05:00 +8°C° 0.2 mm 1 m/s 725 mmHg 83%
    06:00 +9°C° 0.2 mm 1 m/s 726 mmHg 80%
    07:00 +10°C° 0.2 mm 1 m/s 726 mmHg 77%
    08:00 +10°C° 0.8 mm 1 m/s 726 mmHg 77%
    09:00 +10°C° 0.8 mm 1 m/s 726 mmHg 77%
    10:00 +8°C° 0.8 mm 2 m/s 725 mmHg 76%
    11:00 +9°C° 0.3 mm 2 m/s 725 mmHg 71%
    12:00 +10°C° 0.3 mm 2 m/s 726 mmHg 65%
    13:00 +11°C° 0.3 mm 3 m/s 726 mmHg 60%
    14:00 +12°C° 0.1 mm 2 m/s 725 mmHg 59%
    15:00 +12°C° 0.1 mm 2 m/s 725 mmHg 57%
    16:00 +13°C° 0.1 mm 1 m/s 725 mmHg 56%
    17:00 +10°C° 0.3 mm 2 m/s 725 mmHg 61%
    18:00 +9°C° 0.3 mm 2 m/s 725 mmHg 67%
    19:00 +8°C° 0.3 mm 2 m/s 725 mmHg 72%
    20:00 +8°C° 0.1 mm 2 m/s 725 mmHg 73%
    21:00 +7°C° 0.1 mm 2 m/s 725 mmHg 74%
    22:00 +8°C° 0.1 mm 1 m/s 725 mmHg 75%
    23:00 +7°C° 0.1 mm 1 m/s 725 mmHg 77%

    29 Avril, Lundi

    Heure Température Précipitation Vent Pression Humidité
    00:00 +7°C° 0.1 mm 1 m/s 725 mmHg 78%
    01:00 +6°C° 0.1 mm 2 m/s 725 mmHg 79%
    02:00 +5°C° 0.1 mm 2 m/s 725 mmHg 80%
    03:00 +5°C° 0.1 mm 2 m/s 725 mmHg 81%
    04:00 +5°C° 0.1 mm 2 m/s 724 mmHg 82%
    05:00 +6°C° 0.3 mm 2 m/s 724 mmHg 81%
    06:00 +6°C° 0.3 mm 2 m/s 724 mmHg 80%
    07:00 +7°C° 0.3 mm 2 m/s 724 mmHg 79%
    08:00 +8°C° 0.4 mm 2 m/s 724 mmHg 76%
    09:00 +10°C° 0.4 mm 1 m/s 724 mmHg 73%
    10:00 +11°C° 0.4 mm 1 m/s 724 mmHg 70%
    11:00 +11°C° 0.4 mm 1 m/s 724 mmHg 70%
    12:00 +12°C° 0.4 mm 1 m/s 724 mmHg 70%
    13:00 +12°C° 0.4 mm 1 m/s 723 mmHg 71%
    14:00 +12°C° 0.5 mm 2 m/s 723 mmHg 72%
    15:00 +12°C° 0.5 mm 2 m/s 723 mmHg 73%
    16:00 +12°C° 0.5 mm 2 m/s 722 mmHg 74%
    17:00 +10°C° 0.5 mm 2 m/s 723 mmHg 79%
    18:00 +9°C° 0.5 mm 2 m/s 723 mmHg 84%
    19:00 +8°C° 0.5 mm 2 m/s 723 mmHg 88%
    20:00 +8°C° 0.2 mm 2 m/s 723 mmHg 89%
    21:00 +8°C° 0.2 mm 1 m/s 723 mmHg 90%
    22:00 +8°C° 0.2 mm 1 m/s 724 mmHg 90%
    23:00 +7°C° 0 mm 1 m/s 724 mmHg 91%

    30 Avril, Mardi

    Heure Température Précipitation Vent Pression Humidité
    00:00 +6°C° 0 mm 2 m/s 723 mmHg 91%
    01:00 +5°C° 0 mm 2 m/s 723 mmHg 91%
    02:00 +5°C° 0 mm 2 m/s 723 mmHg 91%
    03:00 +5°C° 0 mm 2 m/s 723 mmHg 90%
    04:00 +5°C° 0 mm 2 m/s 723 mmHg 90%
    05:00 +6°C° 0 mm 2 m/s 723 mmHg 87%
    06:00 +7°C° 0 mm 2 m/s 723 mmHg 84%
    07:00 +8°C° 0 mm 2 m/s 723 mmHg 82%
    08:00 +10°C° 0 mm 2 m/s 723 mmHg 75%
    09:00 +12°C° 0 mm 2 m/s 723 mmHg 68%
    10:00 +14°C° 0 mm 2 m/s 723 mmHg 61%
    11:00 +14°C° 0.1 mm 3 m/s 723 mmHg 58%
    12:00 +14°C° 0.1 mm 3 m/s 722 mmHg 55%
    13:00 +16°C° 0.1 mm 3 m/s 722 mmHg 52%
    14:00 +16°C° 0.1 mm 3 m/s 722 mmHg 53%
    15:00 +16°C° 0.1 mm 2 m/s 722 mmHg 54%
    16:00 +16°C° 0.1 mm 2 m/s 722 mmHg 54%
    17:00 +14°C° 0.1 mm 2 m/s 722 mmHg 62%
    18:00 +13°C° 0.1 mm 1 m/s 722 mmHg 70%
    19:00 +11°C° 0.1 mm 1 m/s 722 mmHg 77%
    20:00 +11°C° 0.1 mm 1 m/s 722 mmHg 80%
    21:00 +10°C° 0.1 mm 1 m/s 723 mmHg 83%
    22:00 +10°C° 0.1 mm 1 m/s 723 mmHg 86%
    23:00 +9°C° 0 mm 1 m/s 723 mmHg 87%

    1 Mai, Mercredi

    Heure Température Précipitation Vent Pression Humidité
    00:00 +8°C° 0 mm 1 m/s 723 mmHg 88%
    01:00 +8°C° 0 mm 1 m/s 723 mmHg 89%
    02:00 +8°C° 0 mm 1 m/s 723 mmHg 89%
    03:00 +7°C° 0 mm 1 m/s 723 mmHg 88%
    04:00 +7°C° 0 mm 1 m/s 723 mmHg 88%
    05:00 +8°C° 0 mm 1 m/s 723 mmHg 84%
    06:00 +10°C° 0 mm 1 m/s 723 mmHg 80%
    07:00 +11°C° 0 mm 1 m/s 723 mmHg 75%
    08:00 +14°C° 0 mm 1 m/s 723 mmHg 68%
    09:00 +15°C° 0 mm 0 m/s 723 mmHg 60%
    10:00 +18°C° 0 mm 0 m/s 723 mmHg 52%
    11:00 +19°C° 0.1 mm 1 m/s 723 mmHg 52%
    12:00 +19°C° 0.1 mm 1 m/s 722 mmHg 52%
    13:00 +18°C° 0.1 mm 1 m/s 722 mmHg 53%
    14:00 +19°C° 0.1 mm 1 m/s 722 mmHg 52%
    15:00 +19°C° 0.1 mm 1 m/s 721 mmHg 51%
    16:00 +19°C° 0.1 mm 1 m/s 721 mmHg 51%
    17:00 +16°C° 0.1 mm 1 m/s 721 mmHg 60%
    18:00 +15°C° 0.1 mm 1 m/s 721 mmHg 69%
    19:00 +13°C° 0.1 mm 1 m/s 721 mmHg 78%
    20:00 +12°C° 0 mm 1 m/s 721 mmHg 82%
    21:00 +11°C° 0 mm 1 m/s 721 mmHg 86%
    22:00 +10°C° 0 mm 1 m/s 721 mmHg 90%
    23:00 +10°C° 0 mm 1 m/s 721 mmHg 90%
    Voir plus